Location: Härggis
(46.9540°N, 8.4897°E)
Time: 02:46:29
(UTC+00:00)

Cosmos 2369 Rocket - Pass Details

Date: 27 May 2022
Orbit: 830 x 851 km, 71.0° (Epoch: 26 June)

Event Time Altitude Azimuth Distance (km) Brightness Sun altitude
Rises 01:35:17 0° 334° (NNW) 3,386 5.8 -15.6°
Reaches altitude 10° 01:37:45 10° 336° (NNW) 2,447 5.1 -15.3°
Maximum altitude 01:43:21 72° 61° (ENE) 876 2.4 -14.8°
Drops below altitude 10° 01:48:55 10° 146° (SE) 2,432 4.4 -14.3°
Sets 01:51:21 0° 148° (SSE) 3,363 5.1 -14.0°
